| time (UTC) | temp F | wind direction | speed MPH | gust MPH | rain 1hr in | rain 24hr in | rain mn in | humidity % | barometer mb |
| 20260505001519 | 54 | 0.0 | 0.0 | 0.00 | 0.00 | 0.00 | 58 | 1015.4 | |
| 20260505000022 | 54 | 0.0 | 0.0 | 0.00 | 0.00 | 0.00 | 56 | 1015.3 | |
| 20260504234515 | 55 | 0.0 | 0.0 | 0.00 | 0.00 | 0.00 | 55 | 1015.5 | |
| 20260504233013 | 55 | 0.0 | 0.0 | 0.00 | 0.00 | 0.00 | 53 | 1015.6 | |
| 20260504231512 | 54 | 0.0 | 0.0 | 0.00 | 0.00 | 0.00 | 53 | 1015.7 | |
| 20260504230010 | 54 | 0.0 | 0.0 | 0.00 | 0.00 | 0.00 | 56 | 1015.8 | |
| 20260504224511 | 54 | 0.0 | 0.0 | 0.00 | 0.00 | 0.00 | 56 | 1016.1 | |
| 20260504223011 | 55 | 0.0 | 0.0 | 0.00 | 0.00 | 0.00 | 56 | 1016.2 | |
| 20260504221510 | 54 | 0.0 | 0.0 | 0.00 | 0.00 | 0.00 | 55 | 1016.2 | |
| 20260504220026 | 55 | 0.0 | 0.0 | 0.00 | 0.00 | 0.00 | 58 | 1016.1 | |
| 20260504214505 | 56 | 0.0 | 0.0 | 0.00 | 0.00 | 0.00 | 58 | 1016.2 | |
| 20260504213003 | 56 | 0.0 | 0.0 | 0.00 | 0.00 | 0.00 | 58 | 1016.2 | |
| 20260504211502 | 56 | 0.0 | 0.0 | 0.00 | 0.00 | 0.00 | 58 | 1016.4 | |
| 20260504210106 | 57 | 0.0 | 0.0 | 0.00 | 0.00 | 0.00 | 56 | 1016.4 | |
| 20260504204606 | 57 | 0.0 | 0.0 | 0.00 | 0.00 | 0.00 | 55 | 1016.5 | |
| 20260504203101 | 57 | 0.0 | 0.0 | 0.00 | 0.00 | 0.00 | 52 | 1016.6 | |
| 20260504201558 | 57 | 0.0 | 0.0 | 0.00 | 0.00 | 0.00 | 48 | 1016.7 | |
| 20260504200057 | 57 | 0.0 | 0.0 | 0.00 | 0.00 | 0.00 | 47 | 1016.8 | |
| 20260504194508 | 57 | 0.0 | 0.0 | 0.00 | 0.00 | 0.00 | 47 | 1016.7 | |
| 20260504193005 | 59 | 0.0 | 0.0 | 0.00 | 0.00 | 0.00 | 36 | 1016.6 | |
| 20260504191503 | 60 | 0.0 | 0.0 | 0.00 | 0.00 | 0.00 | 36 | 1016.6 | |
| 20260504190006 | 59 | 0.0 | 0.0 | 0.00 | 0.00 | 0.00 | 36 | 1016.7 | |
| 20260504184508 | 60 | 0.0 | 0.0 | 0.00 | 0.00 | 0.00 | 35 | 1016.6 | |
| 20260504183007 | 60 | 0.0 | 0.0 | 0.00 | 0.00 | 0.00 | 35 | 1016.6 | |
| 20260504181506 | 60 | 0.0 | 0.0 | 0.00 | 0.00 | 0.00 | 35 | 1016.5 | |
| 20260504180005 | 61 | 0.0 | 0.0 | 0.00 | 0.00 | 0.00 | 33 | 1016.3 | |
| 20260504174545 | 61 | 0.0 | 0.0 | 0.00 | 0.00 | 0.00 | 32 | 1016.2 | |
| 20260504173043 | 61 | 0.0 | 0.0 | 0.00 | 0.00 | 0.00 | 32 | 1016.2 | |
| 20260504171542 | 62 | 0.0 | 0.0 | 0.00 | 0.00 | 0.00 | 33 | 1016.2 | |
| 20260504081535 | 64 | 0.0 | 0.0 | 0.00 | 0.01 | 0.00 | 39 | 1018.2 | |
| 20260504044546 | 52 | 40 | 0.0 | 0.0 | 0.00 | 0.12 | 0.00 | 72 | 1017.3 |
| 20260504043055 | 51 | 40 | 0.0 | 0.0 | 0.00 | 0.12 | 0.00 | 72 | 1017.3 |
| 20260504041544 | 51 | 40 | 0.0 | 0.0 | 0.00 | 0.12 | 0.00 | 71 | 1017.3 |
| 20260504040038 | 51 | 40 | 0.0 | 0.0 | 0.00 | 0.12 | 0.00 | 70 | 1017.2 |
| 20260504034539 | 52 | 40 | 0.0 | 0.0 | 0.00 | 0.23 | 0.00 | 70 | 1017.1 |
| 20260504033034 | 52 | 40 | 0.0 | 0.0 | 0.00 | 0.23 | 0.00 | 69 | 1017.1 |
| 20260504031532 | 52 | 40 | 0.0 | 0.0 | 0.00 | 0.23 | 0.00 | 69 | 1017.1 |
| 20260504030032 | 53 | 40 | 0.0 | 0.0 | 0.00 | 0.23 | 0.00 | 69 | 1017.1 |
| 20260504024531 | 53 | 40 | 0.0 | 0.0 | 0.00 | 0.23 | 0.00 | 68 | 1017.0 |
| 20260504023031 | 54 | 40 | 0.0 | 0.0 | 0.00 | 0.23 | 0.00 | 66 | 1017.1 |
| 20260504021534 | 53 | 0.0 | 0.0 | 0.00 | 0.23 | 0.00 | 64 | 1017.0 | |
| 20260504020029 | 53 | 0.0 | 0.0 | 0.00 | 0.23 | 0.00 | 64 | 1017.0 | |
| 20260504014534 | 53 | 0.0 | 0.0 | 0.00 | 0.23 | 0.00 | 64 | 1017.1 | |
| 20260504013025 | 53 | 0.0 | 0.0 | 0.00 | 0.23 | 0.00 | 64 | 1017.1 | |
| 20260504011525 | 53 | 0.0 | 0.0 | 0.00 | 0.23 | 0.00 | 64 | 1017.1 | |
| 20260504010024 | 53 | 0.0 | 0.0 | 0.00 | 0.23 | 0.00 | 64 | 1017.1 | |
| 20260504004524 | 53 | 0.0 | 0.0 | 0.00 | 0.23 | 0.00 | 63 | 1017.1 | |
| 20260504003024 | 53 | 0.0 | 0.0 | 0.00 | 0.23 | 0.00 | 62 | 1017.1 |